Weather History for LIVT - January, 2013

Change the Weather History Date:

Friday, January 18, 2013

  Actual Average Record
Temperature  
Mean Temperature 40 °F -  
Max Temperature 44 °F 47 °F 59 °F (2014)
Min Temperature 37 °F 39 °F 32 °F (2012)
Degree Days  
Heating Degree Days 24    
Moisture  
Dew Point 25 °F    
Average Humidity 53    
Maximum Humidity 60    
Minimum Humidity 40    
Precipitation  
Precipitation 0.00 in 0.09 in - ()
Sea Level Pressure  
Sea Level Pressure 29.50 in    
Wind  
Wind Speed 11 mph ()    
Max Wind Speed 25 mph    
Max Gust Speed 52 mph    
Visibility 6.8 miles    
Events      
Averages and records for this station are not official NWS values.
T = Trace of Precipitation, MM = Missing Value Source: Averaged Metar Reports

Daily Weather History Graph

Daily Weather History Graph

Search for Another Location

Airport or City:

Trip Planner

Search our weather history database for the weather conditions in past years. The results will help you decide how hot, cold, wet, or windy it might be!

Date:

Astronomy

Jan. 18, 2013 Rise Set
Actual Time 7:39 AM CET 4:51 PM CET
Civil Twilight 7:06 AM CET 5:24 PM CET
Nautical Twilight 6:30 AM CET 6:01 PM CET
Astronomical Twilight 5:54 AM CET 6:36 PM CET
Moon 10:44 AM CET (1/18) No Moon Set
Length of Visible Light 10h 17m
Length of Day
9h 11m
Waxing Crescent, 45% of the Moon is Illuminated
Jan 18
Waxing Crescent
Jan 19
First Quarter
Jan 27
Full
Feb 3
Last Quarter
Feb 10
New

Hourly Weather History & Observations

Time (CET) Temp. Windchill Dew Point Humidity Pressure Visibility Wind Dir Wind Speed Gust Speed Precip Events Conditions
12:55 AM 39.2 °F 28.3 °F 23.0 °F 52% 29.44 in 6.2 mi ENE 25.3 mph 50.6 mph N/A   Scattered Clouds
1:00 AM 38 °F - 23 °F 41% 29.47 in 6 mi ENE 25.3 mph - -   Overcast
1:55 AM 37.4 °F 25.9 °F 23.0 °F 56% 29.44 in 6.2 mi ENE 25.3 mph 51.8 mph N/A   Scattered Clouds
2:55 AM 41.0 °F 34.7 °F 24.8 °F 53% 29.42 in 6.2 mi West 10.4 mph 31.1 mph N/A   Scattered Clouds
3:55 AM 41.0 °F 34.7 °F 24.8 °F 53% 29.42 in 6.2 mi West 10.4 mph 32.2 mph N/A   Scattered Clouds
4:55 AM 39.2 °F 34.2 °F 23.0 °F 52% 29.42 in 6.2 mi West 6.9 mph 18.4 mph N/A   Mostly Cloudy
5:55 AM 39.2 °F 37.0 °F 23.0 °F 52% 29.44 in 6.2 mi South 3.5 mph - N/A   Scattered Clouds
6:55 AM 41.0 °F - 26.6 °F 57% 29.42 in 6.2 mi NE 1.2 mph - N/A   Scattered Clouds
7:55 AM 39.2 °F - 23.0 °F 52% 29.47 in 6.2 mi Calm Calm - N/A   Scattered Clouds
8:55 AM 39.2 °F 35.9 °F 23.0 °F 52% 29.44 in 6.2 mi South 4.6 mph - N/A   Scattered Clouds
9:55 AM 39.2 °F 35.0 °F 24.8 °F 56% 29.53 in 6.2 mi SSE 5.8 mph - N/A   Scattered Clouds
10:55 AM 41.0 °F - 24.8 °F 53% 29.53 in 6.2 mi SW 2.3 mph - N/A   Scattered Clouds
11:55 AM 41.0 °F - 24.8 °F 53% 29.53 in 6.2 mi SW 1.2 mph - N/A   Scattered Clouds
12:55 PM 42.8 °F - 26.6 °F 53% 29.53 in 6.2 mi WSW 2.3 mph - N/A   Scattered Clouds
1:00 PM 42 °F - 26 °F 40% 29.55 in 12 mi WSW 2.3 mph - -   Overcast
1:55 PM 42.8 °F 41.1 °F 26.6 °F 53% 29.53 in 6.2 mi South 3.5 mph - N/A   Scattered Clouds
2:55 PM 42.8 °F - 26.6 °F 53% 29.53 in - SSE 2.3 mph - N/A   Clear
4:55 PM 41.0 °F 33.5 °F 24.8 °F 53% 29.53 in 6.2 mi ENE 13.8 mph - N/A   Partly Cloudy
5:55 PM 39.2 °F 31.2 °F 24.8 °F 56% 29.53 in - ENE 13.8 mph 28.8 mph N/A   Clear
6:55 PM 39.2 °F 30.8 °F 24.8 °F 56% 29.53 in - ENE 15.0 mph - N/A   Clear
7:00 PM 39 °F - 24 °F 43% 29.56 in 12 mi ENE 15.0 mph - -   Partly Cloudy
7:55 PM 39.2 °F 31.6 °F 24.8 °F 56% 29.56 in - ENE 12.7 mph 24.2 mph N/A   Clear
8:55 PM 39.2 °F 32.5 °F 24.8 °F 56% 29.56 in - North 10.4 mph - N/A   Clear
9:55 PM 39.2 °F 33.0 °F 24.8 °F 56% 29.56 in - ENE 9.2 mph - N/A   Clear
10:55 PM 39.2 °F 32.0 °F 24.8 °F 56% 29.56 in - ENE 11.5 mph - N/A   Clear
11:55 PM 37.4 °F 30.8 °F 24.8 °F 60% 29.56 in - ENE 9.2 mph - N/A   Clear